Location: Buch
(49.7331°N, 12.1098°E)
Time: 11:55:19
(UTC+00:00)

Landsat 7 - Visible Passes

Search period start: 28 September 2021 00:00
Search period end: 08 October 2021 00:00
Orbit: 701 x 703 km, 98.0° (Epoch: 28 September)

Date Brightness Start Highest point End Pass type
(mag) Time Alt. Az. Time Alt. Az. Time Alt. Az.
28 Sep 4.2 19:02:31 41° ENE 19:02:42 42° ENE 19:07:11 10° N visible
28 Sep 5.7 20:41:24 27° WNW 20:41:24 27° WNW 20:44:42 10° NW visible
29 Sep 5.5 18:06:57 15° ENE 18:08:08 16° ENE 18:11:00 10° NNE visible
29 Sep 4.0 19:45:50 70° NNW 19:45:50 70° NNW 19:50:05 10° NNW visible
29 Sep 6.7 21:24:43 11° WNW 21:24:43 11° WNW 21:25:35 10° WNW visible
30 Sep 4.6 18:50:15 33° ENE 18:50:22 33° ENE 18:54:38 10° N visible
30 Sep 5.4 20:29:09 32° WNW 20:29:09 32° WNW 20:32:30 10° NNW visible
01 Oct 5.7 17:54:41 12° ENE 17:55:54 13° NE 17:58:04 10° NNE visible
01 Oct 4.0 19:33:34 63° NNE 19:33:34 63° NNE 19:37:39 10° N visible
01 Oct 6.5 21:12:28 14° WNW 21:12:28 14° WNW 21:14:02 10° NW visible
02 Oct 4.9 18:37:59 27° ENE 18:38:04 27° ENE 18:42:03 10° N visible
02 Oct 5.2 20:16:53 37° WNW 20:16:53 37° WNW 20:20:14 10° NNW visible
03 Oct 5.9 17:42:48 10° ENE 17:43:41 10° NE 17:44:35 10° NE visible
03 Oct 4.2 19:21:18 51° NNE 19:21:18 51° NNE 19:25:12 10° N visible
03 Oct 6.3 21:00:12 17° WNW 21:00:12 17° WNW 21:02:07 10° NW visible
04 Oct 5.1 18:25:44 22° ENE 18:25:47 22° ENE 18:29:24 10° N visible
04 Oct 5.0 20:04:37 40° NW 20:04:37 40° NW 20:07:54 10° NNW visible
05 Oct 4.5 19:09:03 41° NE 19:09:03 41° NE 19:12:42 10° N visible
05 Oct 6.2 20:47:56 20° WNW 20:47:56 20° WNW 20:50:03 10° NW visible
06 Oct 5.4 18:13:28 18° ENE 18:13:31 18° ENE 18:16:41 10° NNE visible
06 Oct 4.9 19:52:22 41° NNW 19:52:22 41° NNW 19:55:32 10° NNW visible
07 Oct 4.8 18:56:47 33° NE 18:56:47 33° NE 19:00:11 10° N visible
07 Oct 6.0 20:35:40 22° NW 20:35:40 22° NW 20:37:53 10° NNW visible
